TimeEDT,TemperatureF,Dew PointF,Humidity,Sea Level PressureIn,VisibilityMPH,Wind Direction,Wind SpeedMPH,Gust SpeedMPH,PrecipitationIn,Events,Conditions,WindDirDegrees,DateUTC
12:15 AM,58.1,54.3,87,29.72,10.0,NW,11.5,-,N/A,,Overcast,310,2012-09-18 04:15:00
12:35 AM,57.2,53.8,88,29.72,10.0,NNW,10.4,-,N/A,Rain,Light Rain,330,2012-09-18 04:35:00
12:54 AM,55.8,52.0,87,29.71,10.0,North,11.5,18.4,N/A,,Overcast,350,2012-09-18 04:54:00
1:15 AM,55.0,51.4,88,29.71,10.0,North,11.5,-,N/A,,Overcast,350,2012-09-18 05:15:00
1:35 AM,54.7,51.6,89,29.71,10.0,North,9.2,-,N/A,,Overcast,10,2012-09-18 05:35:00
1:54 AM,54.5,50.2,85,29.71,10.0,North,10.4,16.1,N/A,,Overcast,360,2012-09-18 05:54:00
2:15 AM,54.0,50.2,87,29.72,10.0,North,10.4,-,N/A,,Overcast,360,2012-09-18 06:15:00
2:35 AM,53.6,50.4,89,29.72,10.0,North,9.2,-,N/A,,Overcast,350,2012-09-18 06:35:00
2:54 AM,53.6,50.2,88,29.72,10.0,North,9.2,-,N/A,,Overcast,350,2012-09-18 06:54:00
3:35 AM,53.1,49.5,88,29.71,10.0,NNW,10.4,-,N/A,,Overcast,340,2012-09-18 07:35:00
4:15 AM,52.3,49.1,89,29.71,10.0,NNW,4.6,-,N/A,,Overcast,340,2012-09-18 08:15:00
4:35 AM,51.3,48.6,90,29.71,10.0,NW,5.8,-,N/A,,Mostly Cloudy,310,2012-09-18 08:35:00
4:55 AM,50.9,48.2,90,29.71,10.0,NW,6.9,-,N/A,,Mostly Cloudy,310,2012-09-18 08:55:00
5:15 AM,50.9,48.2,90,29.71,10.0,NW,8.1,-,N/A,,Mostly Cloudy,310,2012-09-18 09:15:00
5:35 AM,50.4,47.8,91,29.71,10.0,NW,6.9,-,N/A,,Scattered Clouds,310,2012-09-18 09:35:00
5:55 AM,50.0,47.5,91,29.71,10.0,NW,6.9,-,N/A,,Mostly Cloudy,310,2012-09-18 09:55:00
6:15 AM,50.9,48.4,91,29.71,10.0,NW,8.1,-,N/A,,Mostly Cloudy,310,2012-09-18 10:15:00
6:35 AM,51.4,48.4,89,29.72,10.0,NW,6.9,-,N/A,,Overcast,310,2012-09-18 10:35:00
6:55 AM,52.0,48.6,88,29.71,10.0,NNW,8.1,-,N/A,,Overcast,340,2012-09-18 10:55:00
7:15 AM,51.8,48.2,88,29.71,10.0,NNW,6.9,-,N/A,,Overcast,330,2012-09-18 11:15:00
7:34 AM,52.0,48.2,87,29.73,10.0,NNW,6.9,-,N/A,,Overcast,330,2012-09-18 11:34:00
7:55 AM,52.2,48.0,86,29.73,10.0,NW,11.5,-,N/A,,Overcast,320,2012-09-18 11:55:00
8:15 AM,52.0,47.1,83,29.73,10.0,NNW,13.8,18.4,N/A,,Overcast,340,2012-09-18 12:15:00
8:34 AM,52.3,45.3,77,29.74,10.0,NNW,11.5,-,N/A,,Overcast,340,2012-09-18 12:34:00
8:55 AM,52.2,45.1,77,29.74,10.0,North,10.4,20.7,N/A,,Overcast,350,2012-09-18 12:55:00
9:15 AM,53.1,45.7,76,29.74,10.0,NNW,10.4,19.6,N/A,,Overcast,340,2012-09-18 13:15:00
9:34 AM,54.1,46.0,74,29.74,10.0,NNW,9.2,19.6,N/A,,Overcast,330,2012-09-18 13:34:00
9:55 AM,53.1,45.3,75,29.75,10.0,NNW,13.8,-,N/A,,Overcast,330,2012-09-18 13:55:00
10:15 AM,52.7,44.4,73,29.75,10.0,North,13.8,24.2,N/A,,Overcast,350,2012-09-18 14:15:00
10:34 AM,54.0,43.5,68,29.76,10.0,North,12.7,20.7,N/A,,Mostly Cloudy,360,2012-09-18 14:34:00
10:55 AM,54.3,41.7,62,29.76,10.0,North,19.6,25.3,N/A,,Mostly Cloudy,350,2012-09-18 14:55:00
11:15 AM,55.4,42.6,62,29.77,10.0,NNW,13.8,20.7,N/A,,Mostly Cloudy,330,2012-09-18 15:15:00
11:34 AM,56.7,44.4,64,29.76,10.0,NNW,12.7,20.7,N/A,,Overcast,330,2012-09-18 15:34:00
11:55 AM,55.9,42.4,61,29.77,10.0,NNW,16.1,24.2,N/A,Rain,Light Rain,330,2012-09-18 15:55:00
12:15 PM,55.6,43.3,63,29.77,10.0,NNW,10.4,18.4,N/A,,Scattered Clouds,340,2012-09-18 16:15:00
12:34 PM,56.8,42.1,58,29.77,10.0,North,11.5,17.3,N/A,,Mostly Cloudy,350,2012-09-18 16:34:00
12:55 PM,51.3,37.0,58,29.80,10.0,NNW,16.1,29.9,N/A,,Overcast,330,2012-09-18 16:55:00
1:15 PM,50.0,39.7,68,29.80,10.0,North,8.1,-,N/A,Rain,Light Rain,350,2012-09-18 17:15:00
1:34 PM,52.0,40.1,64,29.80,10.0,NNW,8.1,-,N/A,,Overcast,330,2012-09-18 17:34:00
1:55 PM,55.8,41.5,59,29.79,10.0,NW,12.7,18.4,N/A,,Mostly Cloudy,320,2012-09-18 17:55:00
2:15 PM,55.9,38.3,52,29.79,10.0,NW,15.0,20.7,N/A,,Mostly Cloudy,310,2012-09-18 18:15:00
2:34 PM,55.0,36.0,49,29.79,10.0,NNW,8.1,-,N/A,,Overcast,330,2012-09-18 18:34:00
3:15 PM,59.0,33.6,38,29.80,10.0,NNW,16.1,24.2,N/A,,Mostly Cloudy,340,2012-09-18 19:15:00
3:34 PM,56.3,29.8,36,29.80,10.0,NNW,17.3,26.5,N/A,,Overcast,340,2012-09-18 19:34:00
3:55 PM,57.9,31.5,37,29.81,10.0,NNW,15.0,27.6,N/A,,Scattered Clouds,340,2012-09-18 19:55:00
4:15 PM,56.8,30.4,37,29.81,10.0,NW,18.4,27.6,N/A,,Mostly Cloudy,320,2012-09-18 20:15:00
4:35 PM,56.3,33.8,43,29.83,10.0,North,19.6,29.9,N/A,,Scattered Clouds,350,2012-09-18 20:35:00
4:55 PM,53.4,32.7,45,29.83,10.0,NW,17.3,23.0,N/A,,Mostly Cloudy,320,2012-09-18 20:55:00
5:15 PM,52.7,33.3,48,29.84,10.0,NW,13.8,24.2,N/A,,Scattered Clouds,310,2012-09-18 21:15:00
5:35 PM,48.7,38.7,68,29.86,5.0,NW,16.1,34.5,N/A,Rain,Light Rain,310,2012-09-18 21:35:00
5:55 PM,50.0,37.6,62,29.85,10.0,NW,11.5,21.9,N/A,Rain,Light Rain,310,2012-09-18 21:55:00
6:15 PM,51.1,37.8,60,29.86,10.0,NW,11.5,18.4,N/A,,Mostly Cloudy,310,2012-09-18 22:15:00
6:35 PM,50.9,38.1,62,29.87,10.0,WNW,9.2,-,N/A,,Scattered Clouds,300,2012-09-18 22:35:00
6:55 PM,51.1,37.2,59,29.87,10.0,WNW,6.9,-,N/A,,Clear,300,2012-09-18 22:55:00
7:14 PM,50.5,37.6,61,29.88,10.0,West,3.5,-,N/A,,Scattered Clouds,270,2012-09-18 23:14:00
7:35 PM,49.1,37.4,64,29.89,10.0,WNW,4.6,-,N/A,,Scattered Clouds,300,2012-09-18 23:35:00
8:15 PM,47.8,36.0,63,29.90,10.0,West,9.2,-,N/A,,Mostly Cloudy,280,2012-09-19 00:15:00
8:35 PM,46.6,37.0,69,29.91,10.0,West,6.9,-,N/A,,Mostly Cloudy,280,2012-09-19 00:35:00
8:55 PM,44.8,37.8,76,29.91,10.0,Calm,Calm,-,N/A,,Mostly Cloudy,0,2012-09-19 00:55:00
9:14 PM,44.4,37.9,78,29.92,10.0,Calm,Calm,-,N/A,,Scattered Clouds,0,2012-09-19 01:14:00
9:35 PM,44.8,38.5,79,29.92,10.0,Calm,Calm,-,N/A,,Mostly Cloudy,0,2012-09-19 01:35:00
9:55 PM,44.1,37.9,79,29.92,10.0,Calm,Calm,-,N/A,,Scattered Clouds,0,2012-09-19 01:55:00
10:14 PM,42.8,39.2,87,29.93,10.0,Calm,Calm,-,N/A,,Mostly Cloudy,0,2012-09-19 02:14:00
10:55 PM,43.3,40.5,90,29.94,10.0,Calm,Calm,-,N/A,,Overcast,0,2012-09-19 02:55:00
11:14 PM,43.7,40.6,89,29.94,10.0,Calm,Calm,-,N/A,,Mostly Cloudy,0,2012-09-19 03:14:00
11:55 PM,40.8,38.8,93,29.94,10.0,Calm,Calm,-,N/A,,Clear,0,2012-09-19 03:55:00